Regional Weather Roundup
Issued by NWS

Home | Current Version | Previous Version | Text Only | Print | Product List | Glossary On
Versions: 1 2 3 4 5 6 7 8 9 10 11 12 13 14 15 16 17 18 19 20 21 22 23 24 25 26 27 28 29 30 31 32 33 34 35 36 37 38 39 40 41 42 43 44 45 46 47 48 49 50
000
ASUS42 KFFC 200910
RWRGA
WEATHER ROUNDUP FOR GEORGIA
NATIONAL WEATHER SERVICE PEACHTREE CITY GA
400 AM EST MON FEB 20 2017

NOTE: "FAIR" INDICATES FEW OR NO CLOUDS BELOW 12,000 FEET WITH NO
SIGNIFICANT WEATHER AND/OR OBSTRUCTIONS TO VISIBILITY.

* = USE WITH CAUTION. THE STATIONS MARKED WITH AN ASTERISK MAY NOT
REPORT WEATHER SUCH AS PRECIPITATION, FOG, OR THUNDER AND ARE NOT
QUALITY CONTROLLED BY NWS.

THE REMARK "TC" DENOTES TEMPERATURE READING IN DEGREES CELSIUS.

GAZ001>058-201000-
NORTH GEORGIA

CITY           SKY/WX    TMP DP  RH WIND       PRES   REMARKS
ATLANTA        MOCLDY    50  45  83 NE3       30.12F
ATHENS         CLEAR     46  45  96 CALM      30.14S
CHAMBLEE       PTCLDY    43  41  93 CALM      30.12F
PEACHTREE CITY PTCLDY    41  40  96 CALM      30.12F
ROME           PTCLDY    44  41  89 CALM      30.12F
WEST ATLANTA   CLOUDY    44  40  85 CALM      30.12F
GAINESVILLE    CLOUDY    49  44  83 CALM      30.15S
CARTERSVILLE   CLOUDY    41  40  96 CALM      30.13F


CITY           SKY/WX    TMP DP  RH WIND       PRES   REMARKS
DALTON*        PTCLDY    41  41 100 CALM      30.14S
MARIETTA       PTCLDY    45  42  90 CALM      30.12F
CANTON*        CLOUDY    45  39  81 CALM      30.13F
$$

GAZ059>098-102>109-201000-
CENTRAL GEORGIA

CITY           SKY/WX    TMP DP  RH WIND       PRES   REMARKS
AUGUSTA-BUSH   PTCLDY    45  43  93 CALM      30.12F FOG
AUGUSTA-DANIEL CLEAR     54  47  77 N7        30.13F
COLUMBUS       PTCLDY    49  45  86 CALM      30.11F
MACON          PTCLDY    46  43  89 W3        30.12F
ROBINS AFB     PTCLDY    49  47  96 CALM      30.12S


CITY           SKY/WX    TMP DP  RH WIND       PRES   REMARKS
LAGRANGE*      PTCLDY    43  43 100 CALM      30.12F
SYLVANIA*      CLEAR    N/A N/A N/A CALM      30.12F
MILLEDGEVILLE* PTCLDY    46  46 100 CALM      30.13S
$$

GAZ099>101-110>166-201000-
SOUTH GEORGIA

CITY           SKY/WX    TMP DP  RH WIND       PRES   REMARKS
SAVANNAH       CLEAR     49  46  90 CALM      30.11F
VALDOSTA       CLEAR     48  48 100 CALM      30.10S FOG
ALMA           CLEAR     49  49 100 CALM      30.10S FOG
ST SIMONS      CLEAR     54  53  97 CALM      30.10F
FT STEWART     CLEAR     49  47  92 CALM      30.08F
ALBANY         CLEAR     49  48  97 CALM      30.12F
HUNTER AFB     CLEAR     51  51 100 CALM      30.08F
MOODY AFB      CLEAR     50  50 100 CALM      30.09S
BRUNSWICK      FOG       52  52 100 CALM      30.11F VSB 1/4


CITY           SKY/WX    TMP DP  RH WIND       PRES   REMARKS
BAINBRIDGE*    CLEAR     52  50  93 E3        30.09F
MOULTRIE*      CLEAR     54  50  87 CALM      30.11S
VIDALIA*       CLEAR     54  54 100 CALM      30.11S
WAYCROSS*      CLEAR     52  52 100 CALM      30.11S
DOUGLAS*       CLEAR     52  50  93 CALM      30.12S
$$




USA.gov is the U.S. government's official web portal to all federal, state and local government web resources and services.